Location: Florida Caverns State Park
(30.8073°N, 85.2161°W)
Time: 22:25:12
(UTC-04:00)

Hubble Space Telescope - Visible Passes

Search period start: 23 March 2019 00:00
Search period end: 02 April 2019 00:00
Orbit: 537 x 540 km, 28.5° (Epoch: 22 March)

Date Brightness Start Highest point End Pass type
(mag) Time Alt. Az. Time Alt. Az. Time Alt. Az.
23 Mar 1.9 21:09:13 10° SW 21:12:42 26° SSE 21:13:02 26° SSE visible
24 Mar 1.7 20:58:28 10° SW 21:02:10 32° SSE 21:03:28 26° SE visible
25 Mar 1.5 20:47:48 10° SW 20:51:38 37° SSE 20:53:49 21° ESE visible
25 Mar 3.6 22:28:33 10° WSW 22:29:10 14° WSW 22:29:10 14° WSW visible
26 Mar 1.3 20:37:11 10° WSW 20:41:07 43° SSE 20:44:06 16° E visible
26 Mar 3.1 22:18:04 10° W 22:19:27 20° WSW 22:19:27 20° WSW visible
27 Mar 1.2 20:26:37 10° WSW 20:30:37 49° S 20:34:20 12° E visible
27 Mar 2.5 22:07:35 10° W 22:09:41 28° WSW 22:09:41 28° WSW visible
28 Mar 1.1 20:16:04 10° WSW 20:20:07 55° S 20:24:10 10° E visible
28 Mar 1.9 21:57:06 10° W 21:59:53 38° WSW 21:59:53 38° WSW visible
29 Mar 1.4 21:46:38 10° W 21:50:02 49° SW 21:50:02 49° SW visible
30 Mar 1.1 21:36:10 10° W 21:40:11 51° S 21:40:11 51° S visible
31 Mar 1.3 21:25:44 10° W 21:29:41 45° SSW 21:30:20 41° SSE visible
01 Apr 1.6 21:15:18 10° W 21:19:10 39° SSW 21:20:29 30° SSE visible
